Regional Weather Roundup
Issued by NWS Sioux Falls, SD

Home | Current Version | Previous Version | Graphics & Text | Print | Product List | Glossary On
Versions: 1 2 3 4 5 6 7 8 9 10 11 12 13 14 15 16 17 18 19 20 21 22 23 24 25 26 27 28 29 30 31 32 33 34 35 36 37 38 39 40 41 42 43 44 45 46 47 48 49 50
000
ASUS43 KFSD 211502
RWRFSD

WEATHER ROUNDUP FOR SE SOUTH DAKOTA/SW MINNESOTA/NW IOWA
NATIONAL WEATHER SERVICE SIOUX FALLS SD
1000 AM CDT SUN SEP 21 2014

NOTE: "FAIR" INDICATES FEW OR NO CLOUDS BELOW 12,000 FEET WITH NO
SIGNIFICANT WEATHER AND OR OBSTRUCTIONS TO VISIBILITY.


SDZ038>040-050-052>070-211600-
SOUTHEAST SOUTH DAKOTA

CITY           SKY/WX    TMP DP  RH WIND       PRES   REMARKS
CHAMBERLAIN    SUNNY     59  43  56 NW7       30.29R
HURON          SUNNY     58  44  60 N10       30.26R
MADISON        FAIR      57  48  72 N13       30.23R
MITCHELL       SUNNY     60  46  59 N9        30.27R
SIOUX FALLS    SUNNY     60  47  61 N12       30.22R
WINNER         FAIR      59  41  51 NW9       30.32R
YANKTON        SUNNY     57  45  62 NW13      30.25R
$$

MNZ071-072-080-081-089-090-097-098-211600-
SOUTHWEST MINNESOTA

CITY           SKY/WX    TMP DP  RH WIND       PRES   REMARKS
FAIRMONT       MOSUNNY   59  45  58 NW14G21   30.14R
JACKSON        MOSUNNY   57  46  67 N13G22    30.17R
LUVERNE        SUNNY     59  46  63 N14G20    30.21R
MARSHALL       MOSUNNY   57  46  67 N15G22    30.18R
MONTEVIDEO     MOSUNNY   59  52  77 N13G18    30.19R
PIPESTONE      SUNNY     55  48  76 N12       30.20R
REDWOOD FALLS  MOSUNNY   57  51  80 NW12      30.16R
TRACY          SUNNY     58  49  71 N16       30.19R
WINDOM         SUNNY     55  48  76 NW15      30.17R
WORTHINGTON    SUNNY     57  46  67 NW18G25   30.19R
$$

IAZ001>003-012>014-020>022-031-032-NEZ013-014-SDZ071-211600-
NORTHWEST IOWA

CITY           SKY/WX    TMP DP  RH WIND       PRES   REMARKS
CHEROKEE       SUNNY     59  50  70 N13G18    30.19R
DENISON        SUNNY     59  50  72 N12       30.17R
ESTHERVILLE    MOSUNNY   57  48  72 NW16G26   30.16R
LE MARS        SUNNY     61  48  63 N10G18    30.22R
ORANGE CITY    SUNNY     61  48  63 N13G18    30.21R
SHELDON        SUNNY     59  48  67 N15G22    30.19R
SIOUX CITY     SUNNY     60  47  61 NW12      30.22R
SPENCER        MOSUNNY   60  48  64 N18       30.17R
$$

ABBREVIATIONS USED IN REMARKS
   TC - TEMPERATURE IN CELSIUS
  WCI - WIND CHILL INDEX
   HX - HEAT INDEX
  VSB - VISIBILITY




USA.gov is the U.S. government's official web portal to all federal, state and local government web resources and services.